Regional Weather Roundup
Issued by NWS

Home | Current Version | Previous Version | Text Only | Print | Product List | Glossary On
Versions: 1 2 3 4 5 6 7 8 9 10 11 12 13 14 15 16 17 18 19 20 21 22 23 24 25 26 27 28 29 30 31 32 33 34 35 36 37 38 39 40 41 42 43 44 45 46 47 48 49 50
000
ASUS43 KMPX 220110
RWRMN
WEATHER ROUNDUP FOR MINNESOTA
NATIONAL WEATHER SERVICE TWIN CITIES/CHANHASSEN MN
800 PM CDT MON JUL 21 2014


NOTE: "FAIR" INDICATES FEW OR NO CLOUDS BELOW 12,000 FEET WITH NO
SIGNIFICANT WEATHER AND/OR OBSTRUCTIONS TO VISIBILITY. N/A MEANS
CURRENT SKY AND/OR WEATHER CONDITIONS ARE NOT AVAILABLE.

MNZ060>063-068>070-220200-
   Twin Cities Metro

CITY           SKY/WX    TMP DP  RH WIND       PRES   REMARKS
TWIN CITIES    MOCLDY    87  75  67 S13       29.84F HX  96
ST PAUL        CLOUDY    85  75  72 SE13      29.84F HX  93
CRYSTAL        MOCLDY    87  73  62 S10G22    29.83F HX  94
BLAINE         CLOUDY    88  77  70 SE10      29.84F HX 100
LAKEVILLE      MOCLDY    82  75  78 SE3       29.86F
EDEN PRAIRIE   CLOUDY    85  75  72 S10       29.83F HX  93
SOUTH ST PAUL  MOCLDY    86  73  65 SE8       29.85F HX  93
LAKE ELMO      CLOUDY    82  75  78 SE8       29.87F
$$
MNZ001>005-007-008-013>017-022>024-027-028-220200-
   Northwest Minnesota

CITY           SKY/WX    TMP DP  RH WIND       PRES   REMARKS
BEMIDJI        CLOUDY    83  75  76 SE9       29.74F HX  91
HALLOCK        CLOUDY    73  64  73 NE21G32   29.74F
ROSEAU         CLOUDY    75  66  73 N22G29    29.75F
WARROAD        CLOUDY    75  66  73 N18G24    29.79S
THIEF RVR FALL CLOUDY    84  73  70 E14       29.64F HX  91
CROOKSTON      TSTM      75  73  94 SE14      29.65
FOSSTON        CLOUDY    84  73  70 SE14      29.70F THUNDER HX  91
DETROIT LAKES  CLOUDY    82  73  74 S8        29.75S
MOORHEAD       CLOUDY    84  81  89 S13       29.66F HX  98
PARK RAPIDS    CLOUDY    84  75  74 SE16      29.74F HX  92
$$
MNZ006-009>011-018-025>026-220200-
   North Central Minnesota

CITY           SKY/WX    TMP DP  RH WIND       PRES   REMARKS
BAUDETTE       MOCLDY    79  68  69 N8        29.78F
FLAG ISLAND    LGT RAIN  73  66  78 NW25      29.87R
INTL FALLS     MOCLDY    82  74  76 SE3       29.77F
WASKISH        PTCLDY    84  73  70 CALM      29.74F HX  91
BIG FORK       PTCLDY   N/A N/A N/A SE5       29.80F
LONGVILLE      CLOUDY    82  75  78 SE7       29.77F
GRAND RAPIDS   MOCLDY    82  73  74 SE6       29.81F
CRANE LAKE     CLEAR     81  73  78 CALM      29.81F
ORR            PTCLDY    82  70  65 SE7       29.79F
COOK           PTCLDY    84  72  65 S7        29.83F
$$
MNZ012-019>021-037-220200-
   Northeast Minnesota

CITY           SKY/WX    TMP DP  RH WIND       PRES   REMARKS
DULUTH         MOCLDY    84  73  69 S9        29.86F HX  90
ELY            PTCLDY    84  70  61 S10       29.86S
HIBBING        MOCLDY    84  74  71 SE7       29.83F HX  91
EVELETH        CLOUDY    82  72  69 S3        29.86S
DULUTH HARBOR  CLOUDY    84  75  74 S13       29.83S HX  92
TWO HARBORS    PTCLDY    81  70  69 CALM      29.85R
SILVER BAY     CLEAR     77  72  83 CALM      29.85S
GRAND MARAIS     N/A     64  58  80 CALM      29.85F
G MARAIS ARPRT CLEAR     73  66  78 CALM      29.93F
$$
MNZ029>031-032-039>041-046>048-054>057-064-220200-
   West Central Minnesota

CITY           SKY/WX    TMP DP  RH WIND       PRES   REMARKS
FERGUS FALLS   MOCLDY    82  73  74 S18G26    29.70S
WHEATON        PTCLDY    81  73  78 SE14G22   29.72F
MORRIS         MOCLDY    82  75  78 S15G21    29.74R
ALEXANDRIA     CLOUDY    83  74  74 S18G24    29.77F
ELBOW LAKE     FAIR      82  75  79 S21G26    29.73S
WADENA         CLOUDY    82  73  74 SE15G23   29.73F
GLENWOOD       MOCLDY    82  73  74 S16G23    29.78S
APPLETON       PTCLDY    84  73  70 S12G18    29.74R HX  91
BENSON         PTCLDY    82  73  74 S15G23    29.76R
MADISON        PTCLDY    84  75  74 S15G23    29.74S HX  92
WILLMAR        FAIR      84  72  65 SE16G22   29.79S
$$
MNZ033>034-036-042>043-049>051-058-059-220200-
   Central Minnesota

CITY           SKY/WX    TMP DP  RH WIND       PRES   REMARKS
ST CLOUD       CLOUDY    87  76  69 S10G25    29.78F HX  97
SAUK CENTRE    FAIR      82  74  76 S15G21    29.78S
PAYNESVILLE    HVY RAIN  81  73  76 SE13G23   29.79S
AITKIN         CLOUDY    84  75  74 SE7       29.78F HX  92
PINE RIVER     CLOUDY    82  75  78 SE9       29.80F
BRAINERD       CLOUDY    83  74  74 SE9       29.77F
STAPLES        CLOUDY    82  73  74 SE9G17    29.75F
LONG PRAIRIE   CLOUDY    82  73  74 SE17      29.78S
LITTLE FALLS   CLOUDY    82  73  74 SE9       29.77F
LITCHFIELD     CLOUDY    84  77  79 SE9       29.80F HX  94
BUFFALO        CLOUDY    84  73  67 SE8       29.82F HX  90
MAPLE LAKE     CLOUDY    85  76  75 SE7       29.82F HX  94
$$
MNZ037-044-045-052-053-220200-
   East Central Minnesota

CITY           SKY/WX    TMP DP  RH WIND       PRES   REMARKS
PRINCETON      CLOUDY    86  75  70 SE10      29.79F HX  95
CAMBRIDGE      MOCLDY    86  73  66 SE8       29.81F HX  93
RUSH CITY      MOCLDY    83  74  73 SE9       29.84F
MOOSE LAKE     CLOUDY    82  73  74 S7        29.81F
HINCKLEY       MOCLDY    82  75  78 SE8       29.83F
CLOQUET        PTCLDY    82  72  69 S6        29.85F
MCGREGOR       MOCLDY    82  73  74 SE12G18   29.81F
$$
MNZ071>073-080-081-089-090-097-098-220200-
   Southwest Minnesota

CITY           SKY/WX    TMP DP  RH WIND       PRES   REMARKS
MONTEVIDEO     PTCLDY    84  75  74 S7G17     29.78R HX  92
GRANITE FALLS  PTCLDY    83  74  75 SE10      29.79S
CANBY          PTCLDY    83  75  76 S9        29.77S HX  91
MARSHALL       CLEAR     84  73  70 S13       29.78R HX  91
REDWOOD FALLS  MOCLDY    84  75  74 SE15      29.79F HX  92
OLIVIA         PTCLDY    81  72  74 SE12G17   29.79F
PIPESTONE      PTCLDY    82  75  78 S12       29.81S
WINDOM         CLOUDY    84  73  70 SE10      29.83F HX  91
WORTHINGTON    MOCLDY    82  77  83 S8        29.84F HX  91
TRACY          PTCLDY    84  76  76 S9G18     29.79F HX  92
SLAYTON        PTCLDY    82  76  80 SE3       29.82S
$$
MNZ065>067-074>077-082>085-091>093-220200-
   South Central Minnesota

CITY           SKY/WX    TMP DP  RH WIND       PRES   REMARKS
MANKATO        MOCLDY    84  72  65 S10G16    29.84F
NEW ULM        CLOUDY    82  75  78 SE10      29.82S
ST JAMES       CLOUDY    84  75  74 SE9       29.83F HX  92
FAIRMONT       CLOUDY    84  73  70 S10       29.85F HX  91
GLENCOE        CLOUDY    86  73  65 SE7       29.82F HX  92
FARIBAULT      MOCLDY    88  72  58 SE8       29.87F HX  94
OWATONNA       PTCLDY    84  73  70 S10       29.88F HX  91
WASECA         MOCLDY    81  70  69 SE7       29.89S
ALBERT LEA     PTCLDY    84  75  74 S9        29.89S HX  92
$$
MNZ078>079-086>088-094>096-220200-
   Southeast Minnesota

CITY           SKY/WX    TMP DP  RH WIND       PRES   REMARKS
ROCHESTER      CLOUDY    82  72  71 S10       29.93F
RED WING       CLOUDY    84  72  65 S6        29.87R
STANTON        MOCLDY    84  73  68 S7        29.86S HX  91
DODGE CENTER   MOCLDY    82  73  74 S10       29.91S
WINONA         CLOUDY    81  70  69 S5        29.92S
AUSTIN         PTCLDY    82  73  74 S6        29.90S
PRESTON        CLOUDY    81  75  83 S13       29.94F
$$
ABBREVIATIONS USED IN REMARKS
   TC - TEMPERATURES IN CELSIUS
  WCI - WIND CHILL INDEX
   HX - HEAT INDEX
  VSB - VISIBILITY
$$



USA.gov is the U.S. government's official web portal to all federal, state and local government web resources and services.